FW2834 Weather Reports


time (UTC)temp
C
wind
direction
speed
KPH
gust
KPH
rain 1hr
cm
rain 24hr
cm
rain mn
cm
humidity
%
barometer
mb
20260903011545 28 163 0.0 0.0 0.00 0.00 0.00 65 1014.2
20260903011045 28 163 0.0 0.0 0.00 0.00 0.00 64 1014.2
20260903010545 28 163 0.0 0.0 0.00 0.00 0.00 63 1014.1
20260903010045 28 163 0.0 0.0 0.00 0.00 0.00 63 1014.1
20260903005544 28 163 0.0 0.0 0.00 0.00 0.00 63 1014.0
20260903005045 28 163 0.0 0.0 0.00 0.00 0.00 63 1013.9
20260903004550 28 163 0.0 0.0 0.00 0.00 0.00 62 1013.9
20260903004044 29 163 0.0 0.0 0.00 0.00 0.00 62 1013.9
20260903003544 29 163 0.0 0.0 0.00 0.00 0.00 62 1013.9
20260903003043 29 163 0.0 0.0 0.00 0.00 0.00 61 1013.9
20260903002543 29 163 0.0 0.0 0.00 0.00 0.00 61 1013.8
20260903002044 30 163 0.0 0.0 0.00 0.00 0.00 61 1013.7
20260903001543 30 163 0.0 0.0 0.00 0.00 0.00 61 1013.7
20260903001043 30 163 0.0 0.0 0.00 0.00 0.00 60 1013.7
20260903000543 30 163 0.0 0.0 0.00 0.00 0.00 59 1014.2
20260903000046 30 163 0.0 0.0 0.00 0.00 0.00 59 1013.7
20260902235543 31 163 0.0 0.0 0.00 0.00 0.00 58 1013.7
20260902235042 31 163 0.0 0.0 0.00 0.00 0.00 57 1013.7
20260902234546 31 163 0.0 0.0 0.00 0.00 0.00 55 1013.7
20260902234043 31 163 0.0 0.0 0.00 0.00 0.00 55 1013.6
20260902233542 31 163 0.0 1.6 0.00 0.00 0.00 55 1013.6
20260902233048 31 163 0.0 1.6 0.00 0.00 0.00 55 1013.6
20260902232542 31 163 0.0 0.0 0.00 0.00 0.00 54 1013.7
20260902232041 32 163 0.0 0.0 0.00 0.00 0.00 54 1013.7
20260902231541 32 163 0.0 0.0 0.00 0.00 0.00 53 1013.7
20260902231042 32 163 0.0 0.0 0.00 0.00 0.00 53 1013.7
20260902230540 32 163 0.0 1.6 0.00 0.00 0.00 52 1013.7
20260902230040 32 163 0.0 3.2 0.00 0.00 0.00 51 1013.9
20260902225541 32 163 0.0 4.8 0.00 0.00 0.00 51 1013.8
20260902225041 32 212 0.0 3.2 0.00 0.00 0.00 50 1013.8
20260902224549 32 172 0.0 3.2 0.00 0.00 0.00 51 1013.9
20260902224039 32 186 0.0 3.2 0.00 0.00 0.00 49 1013.8
20260902223539 33 247 0.0 1.6 0.00 0.00 0.00 50 1013.8
20260902223053 33 247 0.0 0.0 0.00 0.00 0.00 50 1013.8
20260902222539 33 247 0.0 3.2 0.00 0.00 0.00 49 1013.8
20260902222038 33 247 0.0 3.2 0.00 0.00 0.00 48 1013.9
20260902221541 33 196 0.0 1.6 0.00 0.00 0.00 49 1013.9
20260902221041 33 196 0.0 3.2 0.00 0.00 0.00 48 1013.9
20260902220538 33 196 0.0 4.8 0.00 0.00 0.00 48 1013.9
20260902220042 33 248 0.0 4.8 0.00 0.00 0.00 48 1013.8
20260902215538 33 271 0.0 0.0 0.00 0.00 0.00 48 1013.8
20260902215037 33 271 0.0 0.0 0.00 0.00 0.00 49 1013.9
20260902214537 33 271 0.0 0.0 0.00 0.00 0.00 48 1014.0
20260902214037 33 271 0.0 3.2 0.00 0.00 0.00 48 1014.1
20260902213536 33 275 0.0 3.2 0.00 0.00 0.00 47 1014.0
20260902213038 33 248 0.0 3.2 0.00 0.00 0.00 46 1014.0
20260902212536 33 158 0.0 3.2 0.00 0.00 0.00 47 1014.0
20260902212036 33 163 0.0 1.6 0.00 0.00 0.00 47 1014.0
20260902211535 33 161 0.0 1.6 0.00 0.00 0.00 46 1014.1
20260902211035 34 106 0.0 0.0 0.00 0.00 0.00 47 1014.1
20260902210535 34 107 0.0 0.0 0.00 0.00 0.00 47 1014.0
20260902210035 34 107 0.0 1.6 0.00 0.00 0.00 45 1014.0
20260902205536 34 107 0.0 3.2 0.00 0.00 0.00 45 1014.0
20260902205035 34 107 0.0 3.2 0.00 0.00 0.00 44 1014.1
20260902204542 34 37 0.0 3.2 0.00 0.00 0.00 45 1014.1
20260902204034 35 223 0.0 3.2 0.00 0.00 0.00 45 1014.2
20260902203533 35 190 0.0 3.2 0.00 0.00 0.00 47 1014.1
20260902203032 35 5 0.0 3.2 0.00 0.00 0.00 46 1014.2
20260902202532 35 5 0.0 3.2 0.00 0.00 0.00 47 1014.3
20260902202029 35 17 0.0 3.2 0.00 0.00 0.00 46 1014.2
20260902201527 35 180 0.0 3.2 0.00 0.00 0.00 46 1014.3
20260902201027 35 28 0.0 3.2 0.00 0.00 0.00 46 1014.3
20260902200530 35 307 0.0 3.2 0.00 0.00 0.00 45 1014.3
20260902200026 35 341 0.0 3.2 0.00 0.00 0.00 47 1014.4
20260902195526 35 313 0.0 1.6 0.00 0.00 0.00 46 1014.5
20260902195027 35 53 0.0 1.6 0.00 0.00 0.00 47 1014.5
20260902194527 35 287 0.0 1.6 0.00 0.00 0.00 48 1014.5
20260902194024 35 287 0.0 1.6 0.00 0.00 0.00 46 1014.5
20260902193523 35 287 0.0 1.6 0.00 0.00 0.00 47 1014.6
20260902193023 35 288 0.0 1.6 0.00 0.00 0.00 47 1014.6
20260902192522 35 289 0.0 0.0 0.00 0.00 0.00 47 1014.7
20260902192021 35 291 0.0 1.6 0.00 0.00 0.00 47 1014.8
20260902191520 35 290 0.0 1.6 0.00 0.00 0.00 47 1014.8
20260902191022 35 290 0.0 1.6 0.00 0.00 0.00 45 1015.0
20260902190521 35 289 0.0 1.6 0.00 0.00 0.00 46 1015.0
20260902190021 35 289 0.0 1.6 0.00 0.00 0.00 45 1015.1
20260902185521 35 284 0.0 4.8 0.00 0.00 0.00 46 1015.0
20260902185021 35 284 0.0 4.8 0.00 0.00 0.00 46 1015.1
20260902184619 35 279 0.0 4.8 0.00 0.00 0.00 43 1015.0
20260902184019 34 186 0.0 9.7 0.00 0.00 0.00 48 1015.1
20260902183518 34 91 0.0 6.4 0.00 0.00 0.00 48 1015.2
20260902183036 34 223 0.0 3.2 0.00 0.00 0.00 50 1015.3
20260902182517 34 223 0.0 4.8 0.00 0.00 0.00 48 1015.3
20260902182017 34 338 0.0 4.8 0.00 0.00 0.00 49 1015.3
20260902181517 33 5 1.6 4.8 0.00 0.00 0.00 49 1015.3
20260902181016 33 286 0.0 3.2 0.00 0.00 0.00 50 1015.4
20260902180515 33 251 0.0 4.8 0.00 0.00 0.00 49 1015.4
20260902180015 33 355 0.0 4.8 0.00 0.00 0.00 49 1015.6
20260902175515 33 306 0.0 4.8 0.00 0.00 0.00 48 1015.6
20260902175015 33 279 1.6 4.8 0.00 0.00 0.00 46 1015.7
20260902174521 33 319 0.0 3.2 0.00 0.00 0.00 47 1015.7
20260902174015 33 190 0.0 8.0 0.00 0.00 0.00 48 1015.8
20260902173513 33 191 0.0 8.0 0.00 0.00 0.00 47 1015.7
20260902173023 33 50 0.0 4.8 0.00 0.00 0.00 48 1015.8
20260902172513 33 26 0.0 3.2 0.00 0.00 0.00 48 1015.9
20260902172013 34 13 0.0 3.2 0.00 0.00 0.00 49 1015.9
20260902171512 34 21 0.0 3.2 0.00 0.00 0.00 48 1015.9
20260902171012 34 21 0.0 3.2 0.00 0.00 0.00 47 1016.0
20260902170512 34 40 0.0 6.4 0.00 0.00 0.00 49 1016.0
20260902170011 34 318 1.6 6.4 0.00 0.00 0.00 47 1016.0
20260902165512 34 319 1.6 4.8 0.00 0.00 0.00 46 1016.0
20260902165013 35 334 1.6 4.8 0.00 0.00 0.00 47 1016.1
20260902164517 35 163 0.0 3.2 0.00 0.00 0.00 46 1016.1
20260902164010 35 161 1.6 3.2 0.00 0.00 0.00 46 1016.1
20260902163509 35 281 0.0 3.2 0.00 0.00 0.00 48 1016.1
20260902163008 34 169 0.0 3.2 0.00 0.00 0.00 50 1016.2
20260902162507 34 234 0.0 6.4 0.00 0.00 0.00 49 1016.2
20260902162006 34 192 0.0 6.4 0.00 0.00 0.00 48 1016.2
20260902161505 34 355 0.0 3.2 0.00 0.00 0.00 51 1016.2
20260902161004 34 117 0.0 3.2 0.00 0.00 0.00 52 1016.2
20260902160504 34 101 0.0 4.8 0.00 0.00 0.00 53 1016.2
20260902160000 33 101 0.0 4.8 0.00 0.00 0.00 53 1016.3
20260902155559 33 355 0.0 4.8 0.00 0.00 0.00 54 1016.3
20260902155058 33 319 0.0 3.2 0.00 0.00 0.00 55 1016.3
20260902154558 33 316 0.0 3.2 0.00 0.00 0.00 56 1016.5
20260902154055 33 257 0.0 3.2 0.00 0.00 0.00 56 1016.5
20260902153556 33 167 0.0 4.8 0.00 0.00 0.00 57 1016.4
20260902153104 32 221 0.0 3.2 0.00 0.00 0.00 56 1016.4
20260902152553 32 244 0.0 3.2 0.00 0.00 0.00 58 1016.6
20260902152049 32 257 0.0 1.6 0.00 0.00 0.00 59 1016.5
20260902151548 32 257 0.0 1.6 0.00 0.00 0.00 61 1016.6
20260902151046 31 227 0.0 1.6 0.00 0.00 0.00 62 1016.6
20260902150545 31 234 0.0 3.2 0.00 0.00 0.00 62 1016.6
20260902150043 31 234 0.0 3.2 0.00 0.00 0.00 63 1016.6
20260902145541 31 186 0.0 0.0 0.00 0.00 0.00 64 1016.5
20260902145043 30 186 0.0 0.0 0.00 0.00 0.00 66 1016.5
20260902144539 30 186 0.0 0.0 0.00 0.00 0.00 67 1016.6
20260902144038 30 186 0.0 0.0 0.00 0.00 0.00 67 1016.6
20260902143538 29 186 0.0 0.0 0.00 0.00 0.00 68 1016.5
20260902143034 28 186 0.0 0.0 0.00 0.00 0.00 69 1016.5
20260902142533 28 186 0.0 3.2 0.00 0.00 0.00 71 1016.5
20260902142032 28 186 0.0 3.2 0.00 0.00 0.00 73 1016.5
20260902141530 27 221 0.0 3.2 0.00 0.00 0.00 73 1016.5
20260902141029 27 221 0.0 3.2 0.00 0.00 0.00 74 1016.7
20260902140527 26 170 0.0 1.6 0.00 0.00 0.00 77 1016.7
20260902140026 26 170 0.0 1.6 0.00 0.00 0.00 78 1016.7
20260902135524 25 170 0.0 1.6 0.00 0.00 0.00 83 1016.7
20260902135023 25 111 0.0 1.6 0.00 0.00 0.00 86 1016.6
20260902134521 24 105 0.0 3.2 0.00 0.00 0.00 87 1016.6
20260902134022 24 105 0.0 3.2 0.00 0.00 0.00 88 1016.7
20260902133518 24 74 0.0 1.6 0.00 0.00 0.00 88 1016.7
20260902133018 23 57 0.0 1.6 0.00 0.00 0.00 88 1016.5
20260902132520 23 57 0.0 1.6 0.00 0.00 0.00 88 1016.5
20260902132016 23 57 0.0 1.6 0.00 0.00 0.00 88 1016.5
20260902131515 23 57 0.0 0.0 0.00 0.00 0.00 88 1016.5
20260902131015 23 57 0.0 0.0 0.00 0.00 0.00 88 1016.5
20260902130616 23 57 0.0 0.0 0.00 0.00 0.00 88 1016.5
20260902130013 23 57 0.0 0.0 0.00 0.00 0.00 87 1016.6
20260902125514 23 57 0.0 1.6 0.00 0.00 0.00 86 1016.5
20260902125012 22 57 0.0 3.2 0.00 0.00 0.00 86 1016.5
20260902124512 22 57 0.0 3.2 0.00 0.00 0.00 85 1016.4
20260902124014 22 57 0.0 1.6 0.00 0.00 0.00 83 1016.3
20260902123509 22 57 0.0 0.0 0.00 0.00 0.00 83 1016.4
20260902123008 22 57 0.0 0.0 0.00 0.00 0.00 82 1016.3
20260902122507 22 57 0.0 0.0 0.00 0.00 0.00 80 1016.4
20260902122007 22 57 0.0 0.0 0.00 0.00 0.00 80 1016.3
20260902121506 22 57 0.0 0.0 0.00 0.00 0.00 79 1016.2
20260902121005 22 57 0.0 0.0 0.00 0.00 0.00 79 1016.1
20260902120506 22 57 0.0 0.0 0.00 0.00 0.00 79 1016.2
20260902120005 22 57 0.0 0.0 0.00 0.00 0.00 79 1016.2
20260902115504 22 57 0.0 0.0 0.00 0.00 0.00 79 1016.2
20260902115002 22 57 0.0 0.0 0.00 0.00 0.00 78 1016.1
20260902114502 22 57 0.0 0.0 0.00 0.00 0.00 78 1016.0
20260902114001 21 57 0.0 0.0 0.00 0.00 0.00 78 1015.9
20260902113604 21 57 0.0 0.0 0.00 0.00 0.00 77 1015.9
20260902113100 21 57 0.0 0.0 0.00 0.00 0.00 77 1015.8
20260902112559 21 57 0.0 0.0 0.00 0.00 0.00 77 1015.8
20260902112100 22 57 0.0 0.0 0.00 0.00 0.00 77 1015.7
20260902111602 22 57 0.0 0.0 0.00 0.00 0.00 77 1015.7
20260902111059 22 57 0.0 0.0 0.00 0.00 0.00 77 1015.8
20260902110559 21 57 0.0 0.0 0.00 0.00 0.00 77 1015.7
20260902110105 22 57 0.0 0.0 0.00 0.00 0.00 76 1015.7
20260902105558 22 57 0.0 0.0 0.00 0.00 0.00 76 1015.9
20260902105058 22 57 0.0 0.0 0.00 0.00 0.00 76 1015.8
20260902104615 21 57 0.0 0.0 0.00 0.00 0.00 76 1015.8
20260902104058 22 57 0.0 0.0 0.00 0.00 0.00 76 1015.8
20260902103557 22 57 0.0 0.0 0.00 0.00 0.00 76 1015.8
20260902103110 22 57 0.0 0.0 0.00 0.00 0.00 76 1015.7
20260902102557 22 57 0.0 0.0 0.00 0.00 0.00 76 1015.7
20260902102056 22 57 0.0 0.0 0.00 0.00 0.00 76 1015.7
20260902101606 22 57 0.0 0.0 0.00 0.00 0.00 76 1015.7
20260902101057 22 57 0.0 0.0 0.00 0.00 0.00 76 1015.7
20260902100555 22 57 0.0 0.0 0.00 0.00 0.00 76 1015.6
20260902100056 22 57 0.0 0.0 0.00 0.00 0.00 76 1015.5
20260902095554 22 57 0.0 0.0 0.00 0.00 0.00 76 1015.6
20260902095056 22 57 0.0 0.0 0.00 0.00 0.00 76 1015.7
20260902094554 22 57 0.0 0.0 0.00 0.00 0.00 76 1015.6
20260902094054 22 57 0.0 0.0 0.00 0.00 0.00 75 1015.6
20260902093553 22 57 0.0 0.0 0.00 0.00 0.00 76 1015.6
20260902093052 22 57 0.0 0.0 0.00 0.00 0.00 75 1015.7
20260902092555 22 57 0.0 0.0 0.00 0.00 0.00 75 1015.7
20260902092052 22 57 0.0 0.0 0.00 0.00 0.00 75 1015.7
20260902091551 22 57 0.0 0.0 0.00 0.00 0.00 75 1015.5
20260902091050 22 57 0.0 0.0 0.00 0.00 0.00 75 1015.5
20260902090550 22 57 0.0 0.0 0.00 0.00 0.00 75 1015.4
20260902090050 22 57 0.0 0.0 0.00 0.00 0.00 75 1015.4
20260902085549 22 57 0.0 0.0 0.00 0.00 0.00 75 1015.3
20260902085047 22 57 0.0 0.0 0.00 0.00 0.00 75 1015.2
20260902084553 22 57 0.0 0.0 0.00 0.00 0.00 75 1015.3
20260902084049 22 57 0.0 0.0 0.00 0.00 0.00 75 1015.1
20260902083548 22 57 0.0 0.0 0.00 0.00 0.00 75 1015.1
20260902083052 22 57 0.0 0.0 0.00 0.00 0.00 75 1015.1
20260902082548 22 57 0.0 0.0 0.00 0.00 0.00 75 1015.0
20260902082045 22 57 0.0 0.0 0.00 0.00 0.00 75 1015.0
20260902081544 22 57 0.0 0.0 0.00 0.00 0.00 75 1015.0
20260902081044 22 57 0.0 0.0 0.00 0.00 0.00 75 1015.0
20260902080544 22 57 0.0 0.0 0.00 0.00 0.00 74 1015.0
20260902080043 22 57 0.0 0.0 0.00 0.00 0.00 74 1014.9
20260902075542 22 57 0.0 0.0 0.00 0.00 0.00 74 1015.0
20260902075043 22 57 0.0 0.0 0.00 0.00 0.00 74 1014.9
20260902074542 22 57 0.0 0.0 0.00 0.00 0.00 74 1014.9
20260902074041 22 57 0.0 0.0 0.00 0.00 0.00 74 1014.9
20260902073543 22 57 0.0 0.0 0.00 0.00 0.00 74 1014.9
20260902073041 22 57 0.0 0.0 0.00 0.00 0.00 74 1014.9
20260902072546 22 57 0.0 0.0 0.00 0.00 0.00 74 1014.8
20260902072044 23 57 0.0 0.0 0.00 0.00 0.00 74 1014.8
20260902071540 23 57 0.0 0.0 0.00 0.00 0.00 74 1014.8
20260902071040 23 57 0.0 0.0 0.00 0.00 0.00 74 1014.8
20260902070538 23 57 0.0 0.0 0.00 0.00 0.00 74 1014.8
20260902070038 23 57 0.0 0.0 0.00 0.00 0.00 74 1014.8
20260902065541 23 57 0.0 0.0 0.00 0.00 0.00 74 1014.8
20260902065037 23 57 0.0 0.0 0.00 0.00 0.00 74 1014.8
20260902064537 23 57 0.0 0.0 0.00 0.00 0.00 74 1014.7
20260902064041 23 57 0.0 0.0 0.00 0.00 0.00 74 1014.8
20260902063536 23 57 0.0 0.0 0.00 0.00 0.00 74 1014.8
20260902063051 23 57 0.0 0.0 0.00 0.00 0.00 74 1014.8
20260902062536 23 57 0.0 0.0 0.00 0.00 0.00 74 1014.8
20260902062035 23 57 0.0 0.0 0.00 0.00 0.00 74 1014.8
20260902061557 23 57 0.0 0.0 0.00 0.00 0.00 74 1014.8
20260902061040 23 57 0.0 0.0 0.00 0.00 0.00 74 1014.8
20260902060533 23 57 0.0 0.0 0.00 0.00 0.00 74 1014.9
20260902060040 23 57 0.0 0.0 0.00 0.00 0.00 74 1014.8
20260902055533 23 57 0.0 0.0 0.00 0.00 0.00 74 1014.9
20260902055032 23 57 0.0 0.0 0.00 0.00 0.00 74 1014.8
20260902054535 23 57 0.0 0.0 0.00 0.00 0.00 73 1014.9
20260902054031 23 57 0.0 0.0 0.00 0.00 0.00 73 1014.9
20260902053532 23 57 0.0 0.0 0.00 0.00 0.00 73 1014.9
20260902053037 23 57 0.0 0.0 0.00 0.00 0.00 73 1014.9
20260902052528 23 57 0.0 0.0 0.00 0.00 0.00 72 1014.9
20260902052028 23 57 0.0 0.0 0.00 0.00 0.00 72 1015.0
20260902051536 23 57 0.0 0.0 0.00 0.00 0.00 72 1015.0
20260902051027 24 57 0.0 0.0 0.00 0.00 0.00 72 1015.0
20260902050527 24 57 0.0 0.0 0.00 0.00 0.00 72 1015.0
20260902050031 24 57 0.0 0.0 0.00 0.00 0.00 72 1015.0
20260902045526 24 57 0.0 0.0 0.00 0.00 0.00 72 1014.9
20260902045026 24 57 0.0 0.0 0.00 0.00 0.00 72 1014.9
20260902044556 24 57 0.0 0.0 0.00 0.00 0.00 72 1015.0
20260902044027 24 57 0.0 0.0 0.00 0.00 0.00 72 1014.9
20260902043525 24 57 0.0 0.0 0.00 0.00 0.00 71 1014.9
20260902043023 24 57 0.0 0.0 0.00 0.00 0.00 71 1014.9
20260902042523 24 57 0.0 0.0 0.00 0.00 0.00 71 1015.0
20260902042024 24 57 0.0 0.0 0.00 0.00 0.00 72 1015.0
20260902041529 25 57 0.0 0.0 0.00 0.00 0.00 72 1015.0
20260902041025 25 57 0.0 0.0 0.00 0.00 0.00 71 1015.0
20260902040520 25 57 0.0 0.0 0.00 0.00 0.00 71 1015.0
20260902040020 25 57 0.0 0.0 0.00 0.00 0.00 71 1015.0
20260902035520 25 57 0.0 0.0 0.00 0.00 0.00 71 1015.0
20260902035022 25 57 0.0 0.0 0.00 0.00 0.00 71 1015.0
20260902034519 25 57 0.0 0.0 0.00 0.00 0.00 71 1015.0
20260902034020 25 57 0.0 0.0 0.00 0.00 0.00 71 1015.1
20260902033520 25 57 0.0 0.0 0.00 0.00 0.00 71 1015.1
20260902033018 25 57 0.0 0.0 0.00 0.00 0.00 71 1015.0
20260902032521 25 57 0.0 0.0 0.00 0.00 0.00 71 1015.0
20260902032017 25 57 0.0 0.0 0.00 0.00 0.00 71 1014.9
20260902031536 25 57 0.0 0.0 0.00 0.00 0.00 71 1015.0
20260902031017 25 57 0.0 0.0 0.00 0.00 0.00 71 1014.9
20260902030522 25 57 0.0 0.0 0.00 0.00 0.00 71 1015.0
20260902030017 25 57 0.0 0.0 0.00 0.00 0.00 71 1015.0
20260902025517 25 57 0.0 0.0 0.00 0.00 0.00 71 1015.0
20260902025017 25 57 0.0 0.0 0.00 0.00 0.00 71 1015.0
20260902024516 25 57 0.0 0.0 0.00 0.00 0.00 70 1015.0
20260902024017 26 57 0.0 0.0 0.00 0.00 0.00 70 1015.0
20260902023517 26 57 0.0 0.0 0.00 0.00 0.00 70 1014.9
20260902023022 26 57 0.0 0.0 0.00 0.00 0.00 70 1014.9
20260902022516 26 57 0.0 0.0 0.00 0.00 0.00 70 1015.0
20260902022018 26 57 0.0 0.0 0.00 0.00 0.00 69 1014.9
20260902021515 26 57 0.0 0.0 0.00 0.00 0.00 69 1014.9
20260902021015 26 57 0.0 0.0 0.00 0.00 0.00 69 1014.9
20260902020516 26 57 0.0 0.0 0.00 0.00 0.00 68 1015.0
20260902020018 26 57 0.0 0.0 0.00 0.00 0.00 68 1015.0
20260902015516 26 57 0.0 0.0 0.00 0.00 0.00 67 1015.0
20260902015015 26 57 0.0 0.0 0.00 0.00 0.00 67 1015.1
20260902014516 27 57 0.0 0.0 0.00 0.00 0.00 67 1015.0
20260902014015 27 57 0.0 0.0 0.00 0.00 0.00 66 1015.1
20260902013515 27 57 0.0 0.0 0.00 0.00 0.00 66 1015.1
20260902013014 27 57 0.0 0.0 0.00 0.00 0.00 66 1015.0
20260902012514 27 57 0.0 0.0 0.00 0.00 0.00 66 1015.0
20260902012013 27 57 0.0 0.0 0.00 0.00 0.00 66 1014.9